ENVISAT

Last updated on Mon Sep 21 2026 00:02:09 GMT+0000 (Coordinated Universal Time)

1 27386U 02009A 26263.44426608 .00000049 00000+0 29695-4 0 9997 2 27386 98.3929 212.6772 0001252 90.9482 18.9118 14.39083038287180
UTC large
Height (km)
Speed (km/s)
/
Latitude / Longitude
Inclination (degrees)
Orbital Period (minutes)
Azimuth
Elevation
Range (km)
Doppler Factor

Next 0 passes for location: London (51.5072 / 0.1276)

No passes found over London.
ENVISAT